Tracking 19247 objects as of 22-Sep-2018
HD Live streaming from Space Station
objects crossing your sky now

TRACE

Track TRACE now!
10-day predictions
TRACE is classified as:


NORAD ID: 25280
Int'l Code: 1998-020A
Perigee: 519.5 km
Apogee: 549.9 km
Inclination: 97.5 °
Period: 95.2 minutes
Semi major axis: 6905 km
RCS: 1.591 m2 (large)
Launch date: April 2, 1998
Source: United States (US)
Launch site: Pegasus launched from Western Range Air Space (WRAS)

Coordinates with SOHO; image the solar corona and transition region at high angular and temporal resolution.
aabbcc
Your satellite tracking list
Your tracking list is empty




NASA's NSSDC Master Catalog

Two Line Element Set (TLE):
1 25280U 98020A   18263.54829033 +.00000459 +00000-0 +29722-4 0  9994
2 25280 097.4871 095.9270 0022023 241.6543 118.2467 15.12820904119711
Source of the keplerian elements: AFSPC